Weather History for KLAM - April, 2014

Change the Weather History Date:

Saturday, April 5, 2014

  Actual Average Record
Temperature  
Mean Temperature 43 °F -  
Max Temperature 51 °F 56 °F 73 °F (2011)
Min Temperature 35 °F 29 °F 8 °F (1983)
Degree Days  
Heating Degree Days 22    
Moisture  
Dew Point 20 °F    
Average Humidity 48    
Maximum Humidity 88    
Minimum Humidity 21    
Precipitation  
Precipitation 0.15 in - - ()
Sea Level Pressure  
Sea Level Pressure 29.91 in    
Wind  
Wind Speed 7 mph (South)    
Max Wind Speed 20 mph    
Max Gust Speed 24 mph    
Visibility 10 miles    
Events Rain , Snow    
Averages and records for this station are not official NWS values.
T = Trace of Precipitation, MM = Missing Value Source: NWS Daily Summary

Daily Weather History Graph

Daily Weather History Graph

Search for Another Location

Airport or City:

Trip Planner

Search our weather history database for the weather conditions in past years. The results will help you decide how hot, cold, wet, or windy it might be!

Date:

Astronomy

Apr. 05, 2014 Rise Set
Actual Time 6:45 AM MDT 7:30 PM MDT
Civil Twilight 6:19 AM MDT 7:56 PM MDT
Nautical Twilight 5:49 AM MDT 8:26 PM MDT
Astronomical Twilight 5:17 AM MDT 8:58 PM MDT
Moon 11:02 AM MDT (4/5) 12:35 AM MDT (4/5)
Length of Visible Light 13h 36m
Length of Day
12h 44m
Waxing Crescent, 35% of the Moon is Illuminated
Apr 5
Waxing Crescent
Apr 7
First Quarter
Apr 15
Full
Apr 22
Last Quarter
Apr 29
New

Hourly Weather History & Observations

Time (MDT) Temp. Windchill Dew Point Humidity Pressure Visibility Wind Dir Wind Speed Gust Speed Precip Events Conditions
12:15 AM 41.4 °F 38.4 °F 9.5 °F 27% 29.98 in 10.0 mi South 4.6 mph - N/A   Scattered Clouds
12:35 AM 41.2 °F 36.0 °F 10.9 °F 29% 29.97 in 10.0 mi South 8.1 mph - N/A   Clear
12:55 AM 40.3 °F 34.9 °F 11.3 °F 31% 29.97 in 10.0 mi SSE 8.1 mph - N/A   Clear
1:15 AM 40.3 °F 33.9 °F 12.2 °F 32% 29.98 in 10.0 mi South 10.4 mph - N/A   Clear
1:35 AM 38.8 °F 33.2 °F 12.2 °F 34% 29.97 in 10.0 mi South 8.1 mph - N/A   Clear
1:55 AM 38.1 °F 34.6 °F 12.2 °F 35% 29.97 in 10.0 mi SSW 4.6 mph - N/A   Clear
2:15 AM 37.8 °F 31.8 °F 12.9 °F 36% 29.96 in 10.0 mi South 8.1 mph - N/A   Clear
2:35 AM 37.8 °F 32.5 °F 13.1 °F 36% 29.96 in 10.0 mi South 6.9 mph - N/A   Clear
2:55 AM 37.0 °F 31.6 °F 13.1 °F 37% 29.96 in 10.0 mi SSE 6.9 mph - N/A   Clear
3:15 AM 37.4 °F 32.1 °F 14.0 °F 38% 29.97 in 10.0 mi SSE 6.9 mph - N/A   Clear
3:35 AM 36.9 °F 32.2 °F 14.2 °F 40% 29.96 in 10.0 mi South 5.8 mph - N/A   Clear
3:55 AM 36.1 °F 30.6 °F 14.0 °F 40% 29.95 in 10.0 mi SSW 6.9 mph - N/A   Clear
4:15 AM 36.5 °F 31.8 °F 14.0 °F 40% 29.94 in 10.0 mi SSW 5.8 mph - N/A   Scattered Clouds
4:35 AM 36.9 °F 34.3 °F 14.2 °F 40% 29.94 in 10.0 mi SSW 3.5 mph - N/A   Scattered Clouds
4:55 AM 36.5 °F 31.0 °F 14.0 °F 40% 29.93 in 10.0 mi SSW 6.9 mph - N/A   Scattered Clouds
5:15 AM 37.6 °F 31.6 °F 14.0 °F 38% 29.92 in 10.0 mi WSW 8.1 mph - N/A   Mostly Cloudy
5:35 AM 38.5 °F 33.4 °F 13.8 °F 37% 29.92 in 10.0 mi SW 6.9 mph - N/A   Mostly Cloudy
5:55 AM 39.2 °F 34.2 °F 13.6 °F 35% 29.92 in 10.0 mi SSW 6.9 mph - N/A   Mostly Cloudy
6:15 AM 38.3 °F 33.9 °F 14.0 °F 37% 29.92 in 10.0 mi SW 5.8 mph - N/A   Overcast
6:35 AM 38.3 °F 33.2 °F 13.8 °F 37% 29.92 in 10.0 mi SW 6.9 mph - N/A   Scattered Clouds
6:55 AM 37.9 °F 33.5 °F 13.8 °F 37% 29.92 in 10.0 mi WSW 5.8 mph - N/A   Scattered Clouds
7:15 AM 38.5 °F 35.0 °F 14.0 °F 37% 29.92 in 10.0 mi SW 4.6 mph - N/A   Mostly Cloudy
7:35 AM 38.5 °F 35.0 °F 14.5 °F 38% 29.93 in 10.0 mi WSW 4.6 mph - N/A   Overcast
7:55 AM 39.6 °F 35.4 °F 14.9 °F 37% 29.93 in 10.0 mi SSW 5.8 mph - N/A   Overcast
8:15 AM 40.1 °F 34.7 °F 14.9 °F 36% 29.94 in 10.0 mi SSW 8.1 mph - N/A   Overcast
8:35 AM 41.0 °F 35.8 °F 15.4 °F 36% 29.94 in 10.0 mi WSW 8.1 mph - N/A   Overcast
8:55 AM 42.4 °F 37.5 °F 15.4 °F 34% 29.92 in 10.0 mi West 8.1 mph - N/A   Overcast
9:15 AM 43.7 °F 42.1 °F 15.6 °F 32% 29.91 in 10.0 mi SE 3.5 mph - N/A   Scattered Clouds
9:35 AM 44.6 °F 41.4 °F 14.9 °F 30% 29.91 in 10.0 mi SSE 5.8 mph - N/A   Scattered Clouds
9:55 AM 44.4 °F 40.0 °F 16.5 °F 33% 29.92 in 10.0 mi East 8.1 mph - N/A   Mostly Cloudy
10:15 AM 44.2 °F 40.3 °F 15.6 °F 32% 29.92 in 10.0 mi SSE 6.9 mph - N/A   Mostly Cloudy
10:35 AM 45.3 °F 40.6 °F 15.6 °F 30% 29.92 in 10.0 mi ESE 9.2 mph - N/A   Overcast
10:55 AM 45.3 °F 40.6 °F 15.6 °F 30% 29.91 in 10.0 mi South 9.2 mph - N/A   Overcast
11:15 AM 45.5 °F 40.3 °F 15.6 °F 30% 29.91 in 10.0 mi ESE 10.4 mph - N/A   Overcast
11:35 AM 45.7 °F 41.5 °F 15.6 °F 30% 29.90 in 10.0 mi SSE 8.1 mph 18.4 mph N/A   Mostly Cloudy
11:55 AM 46.6 °F - 15.3 °F 29% 29.90 in 10.0 mi SSE 10.4 mph - N/A   Mostly Cloudy
12:15 PM 46.4 °F 42.4 °F 15.3 °F 29% 29.89 in 10.0 mi SSE 8.1 mph 17.3 mph N/A   Mostly Cloudy
12:35 PM 48.4 °F - 15.6 °F 27% 29.88 in 10.0 mi South 13.8 mph 18.4 mph N/A   Scattered Clouds
12:55 PM 50.0 °F - 15.4 °F 25% 29.87 in 10.0 mi SSW 13.8 mph 19.6 mph N/A   Scattered Clouds
1:15 PM 49.5 °F - 15.6 °F 26% 29.86 in 10.0 mi SW 10.4 mph 17.3 mph N/A   Mostly Cloudy
1:35 PM 48.6 °F - 15.3 °F 26% 29.86 in 10.0 mi South 8.1 mph - N/A   Mostly Cloudy
1:55 PM 49.6 °F - 15.3 °F 25% 29.85 in 10.0 mi South 9.2 mph 18.4 mph N/A   Scattered Clouds
2:15 PM 51.3 °F - 14.5 °F 23% 29.83 in 10.0 mi South 9.2 mph 18.4 mph N/A   Clear
2:35 PM 51.8 °F - 13.1 °F 21% 29.83 in 10.0 mi South 11.5 mph 21.9 mph N/A   Scattered Clouds
2:55 PM 50.4 °F - 13.5 °F 23% 29.82 in 10.0 mi SSE 11.5 mph 20.7 mph N/A   Mostly Cloudy
3:15 PM 49.6 °F - 14.0 °F 24% 29.81 in 10.0 mi SE 18.4 mph 24.2 mph N/A   Overcast
3:35 PM 47.3 °F - 21.2 °F 36% 29.82 in 10.0 mi ESE 19.6 mph 24.2 mph N/A   Overcast
3:55 PM 45.5 °F 39.2 °F 24.6 °F 44% 29.83 in 10.0 mi SE 13.8 mph 20.7 mph N/A   Overcast
4:15 PM 44.2 °F 40.3 °F 25.9 °F 49% 29.84 in 10.0 mi SE 6.9 mph - N/A   Overcast
4:35 PM 43.0 °F 37.2 °F 28.0 °F 56% 29.86 in 10.0 mi SSE 10.4 mph - N/A Rain Light Rain
4:55 PM 39.2 °F - 31.5 °F 74% 29.87 in 7.0 mi Calm Calm - 0.01 in Rain Light Rain
5:15 PM 38.1 °F 35.7 °F 31.5 °F 77% 29.88 in 10.0 mi NNW 3.5 mph - 0.01 in   Overcast
5:35 PM 36.0 °F 28.0 °F 32.2 °F 86% 29.87 in 3.0 mi WNW 11.5 mph - 0.03 in Snow Snow
5:55 PM 35.4 °F 27.8 °F 32.2 °F 88% 29.89 in 2.5 mi West 10.4 mph 18.4 mph 0.08 in Rain Light Rain
6:15 PM 35.6 °F 29.9 °F 32.4 °F 88% 29.88 in 7.0 mi North 6.9 mph - 0.05 in Rain Light Rain
6:35 PM 36.9 °F 34.3 °F 32.4 °F 84% 29.88 in 10.0 mi North 3.5 mph - 0.06 in   Overcast
6:55 PM 36.9 °F 32.2 °F 32.2 °F 83% 29.89 in 10.0 mi NNW 5.8 mph - 0.06 in   Overcast
7:15 PM 36.9 °F 32.2 °F 32.2 °F 83% 29.90 in 10.0 mi North 5.8 mph - N/A   Mostly Cloudy
7:35 PM 36.3 °F - 32.9 °F 87% 29.90 in 10.0 mi Calm Calm - N/A   Scattered Clouds
7:55 PM 36.7 °F - 32.9 °F 86% 29.91 in 10.0 mi Calm Calm - N/A   Scattered Clouds
8:15 PM 36.7 °F - 32.2 °F 84% 29.91 in 10.0 mi Calm Calm - N/A   Clear
8:35 PM 36.3 °F - 32.4 °F 86% 29.92 in 10.0 mi Calm Calm - N/A   Clear
8:55 PM 36.5 °F - 32.0 °F 84% 29.94 in 10.0 mi Calm Calm - N/A   Clear
9:15 PM 36.3 °F - 32.0 °F 84% 29.94 in 10.0 mi Calm Calm - N/A   Clear
9:35 PM 36.0 °F - 31.6 °F 84% 29.95 in 10.0 mi Calm Calm - N/A   Clear
9:55 PM 35.8 °F 31.9 °F 31.6 °F 85% 29.95 in 10.0 mi WSW 4.6 mph - N/A   Clear
10:15 PM 36.0 °F 30.3 °F 30.9 °F 82% 29.95 in 10.0 mi WSW 6.9 mph - N/A   Clear
10:35 PM 36.0 °F 31.1 °F 30.4 °F 80% 29.94 in 10.0 mi WSW 5.8 mph - N/A   Clear
10:55 PM 37.9 °F - 27.9 °F 67% 29.94 in 10.0 mi Calm Calm - N/A   Clear
11:15 PM 37.8 °F - 26.8 °F 65% 29.95 in 10.0 mi Calm Calm - N/A   Clear
11:35 PM 38.3 °F - 26.6 °F 63% 29.94 in 10.0 mi Calm Calm - N/A   Clear
11:55 PM 37.8 °F - 27.0 °F 65% 29.94 in 10.0 mi Calm Calm - N/A   Clear